www.pogodaiklimat.ru

Погода и климат >> Архив погоды >> Кения >> Момбаса


ПОГОДА в Момбасе

  • Прогноз погоды в Момбасе
  • Монитор погоды в Момбасе

АРХИВ ПОГОДЫ в Момбасе

Время (UTC), дата Ветер
(напр.,м/с)
 
Видим.   Явления Облачность Т
(С)
Тd
(С)
f
(%)
Тe
(С)
Тes
(С)
Комфортность P
(гПа)
Po
(гПа)
Тmin
(С)
Tmax
(С)
R
(мм)
R24
(мм)
S
(см)
03 11.09 З 2 20 км 5/4 540 м
[Cu med, cong Ac trans Ci fib]
+22.6 +22.1 97 +30 +30 очень
душно
1015.8 1009.4
06 11.09 ЮЗ 2 25 км 5/5 660 м
[Cu med, cong Ac trans]
+25.5 +23.3 88 +34 +39 очень
душно
1018.0 1011.6 +22.2 7
09 11.09 Ю 4 30 км 5/5 720 м
[Cu med, cong]
+27.9 +21.8 69 +36 +43 очень
душно
1016.5 1010.2
12 11.09 Ю 5 30 км 3/1 750 м
[Cu hum]
+28.0 +21.8 69 +36 +42 очень
душно
1014.3 1008.0 +22.2 1
15 11.09 ЮВ 3 30 км 1/1 720 м
[Cu hum Ci fib]
+26.4 +21.3 74 +34 +34 очень
душно
1015.0 1008.7
18 11.09 Ю 3 30 км 4/4 660 м
[Cu Sc]
+25.4 +22.3 83 +33 +33 очень
душно
1016.3 1009.9 +28.8 1
21 11.09 ЮЗ 3 30 км 1/1 600 м
[Cu hum]
+24.0 +22.5 91 +31 +31 очень
душно
1016.3 1009.9
00 12.09 ЮЗ 3 30 км 1/1 540 м
[Cu hum]
+23.0 +22.1 95 +31 +31 очень
душно
1015.2 1008.8
03 12.09 ЮЗ 2 30 км 1/1 540 м
[Cu med, cong]
+22.0 +21.2 95 +28 +28 душно 1016.1 1009.6
06 12.09 ЮЗ 4 30 км 6/6 630 м
[Cu med, cong Ac trans]
+26.0 +22.6 82 +34 +37 очень
душно
1018.5 1012.1 +21.7 0.8
09 12.09 Ю 4 30 км 8/3 750 м
[Cu med, cong Ac trans]
+28.7 +21.2 64 +36 +43 очень
душно
1017.2 1010.9
12 12.09 ЮВ 5 30 км 4/4 800 м
[Cu med, cong Ci fib]
+28.8 +21.7 66 +37 +42 очень
душно
1015.1 1008.8
15 12.09 Ю 3 30 км 1/1 720 м
[Cu hum Ci fib]
+26.5 +22.0 76 +34 +34 очень
душно
1015.4 1009.1
18 12.09 Ю 2 30 км 3/3 660 м
[Cu med, cong Ac trans]
+24.7 +22.6 88 +32 +32 очень
душно
1015.9 1009.5 +29.8
21 12.09 ЮЗ 2 30 км 3/3 600 м
[Cu med, cong Ac trans]
+23.3 +22.5 95 +32 +32 очень
душно
1015.9 1009.5
00 13.09 ЮЗ 3 30 км 8/3 570 м
[Cu Sc Ac trans]
+23.6 +23.0 96 +31 +31 очень
душно
1014.7 1008.3
03 13.09 ЮЗ 2 10 км слаб. ливневой дождь 9/3 540 м
[Cu Sc Ac As]
+23.2 +22.6 96 +32 +32 очень
душно
1015.9 1009.5
06 13.09 Ю 3 н/о слаб. дождь 10/6 570 м
[Cu Sc Ac As]
+24.5 +23.2 92 +33 +34 очень
душно
1017.9 1011.5 +22.9 10
09 13.09 ЮВ 4 25 км 6/6 700 м
[Cu med, cong]
+28.2 +22.8 73 +38 +43 очень
душно
1016.3 1010.0
12 13.09 Ю 5 30 км 5/4 800 м
[Cu med, cong Ac trans Ci fib]
+28.4 +22.4 70 +37 +41 очень
душно
1014.1 1007.8 2
15 13.09 Ю 3 30 км 4/3 720 м
[Cu med, cong Ci fib]
+26.0 +22.6 82 +34 +34 очень
душно
1014.3 1007.9
18 13.09 Ю 2 30 км 4/4 700 м
[Cu med, cong]
+25.2 +23.1 88 +34 +34 очень
душно
1015.3 1008.9 +29.5 2
21 13.09 Ю 2 30 км 6/6 630 м
[Cu med, cong]
+24.6 +23.0 91 +33 +33 очень
душно
1015.4 1009.0
00 14.09 Ю 3 30 км 4/4 570 м
[Cu med, cong]
+23.8 +23.0 95 +32 +32 очень
душно
1014.7 1008.3
03 14.09 ЮЗ 2 20 км 5/5 570 м
[Cu med, cong Ci fib]
+23.2 +22.7 97 +32 +32 очень
душно
1015.4 1009.0
06 14.09 ЮЗ 2 30 км 6/6 630 м
[Cu med, cong Ci fib]
+25.8 +23.5 87 +35 +38 очень
душно
1017.1 1010.7 +22.8 2
09 14.09 ЮВ 3 30 км 5/5 750 м
[Cu med, cong]
+28.3 +22.4 70 +37 +46 очень
душно
1015.6 1009.3
12 14.09 ЮВ 4 30 км 4/4 800 м
[Cu med, cong]
+28.7 +22.6 70 +38 +43 очень
душно
1013.2 1006.9
15 14.09 В 4 30 км 5/5 720 м
[Cu med, cong]
+26.2 +22.2 79 +34 +34 очень
душно
1013.6 1007.3
18 14.09 ЮВ 3 30 км 6/6 700 м
[Cu med, cong]
+25.5 +22.5 83 +33 +33 очень
душно
1014.9 1008.5 +29.2
21 14.09 ЮВ 3 30 км 4/4 630 м
[Cu med, cong]
+24.8 +22.4 87 +32 +32 очень
душно
1015.2 1008.8
00 15.09 ЮЗ 2 30 км 3/3 600 м
[Cu med, cong]
+24.2 +22.4 90 +32 +32 очень
душно
1014.5 1008.1
03 15.09 ЮЗ 2 30 км 4/4 540 м
[Cu Sc]
+23.0 +22.7 98 +32 +32 очень
душно
1015.7 1009.3
06 15.09 Ю 3 30 км 6/6 630 м
[Cu med, cong]
+26.0 +23.1 84 +35 +38 очень
душно
1017.5 1011.1 +22.7 0.5
09 15.09 ЮВ 5 30 км 4/4 750 м
[Cu med, cong Ac trans]
+28.6 +22.4 69 +37 +44 очень
душно
1016.6 1010.3
12 15.09 ЮВ 5 30 км 4/3 800 м
[Cu med, cong Ac trans]
+27.9 +22.9 74 +37 +41 очень
душно
1014.2 1007.9
15 15.09 ЮВ 4 30 км 4/1 720 м
[Cu hum Ac trans]
+26.0 +22.0 79 +34 +34 очень
душно
1014.5 1008.1
18 15.09 ЮВ 3 30 км 6/6 660 м
[Cu med, cong Ac trans]
+25.2 +22.2 83 +33 +33 очень
душно
1015.4 1009.0 +29.0
21 15.09 Ю 2 30 км 4/4 630 м
[Cu med, cong]
+24.4 +22.0 86 +31 +31 очень
душно
1015.7 1009.3
00 16.09 штиль 0 30 км 4/4 600 м
[Cu med, cong]
+22.9 +22.0 95 +31 +31 очень
душно
1014.5 1008.1
03 16.09 З 2 20 км 4/4 570 м
[Cu med, cong Ac trans]
+22.6 +21.7 95 +30 +30 очень
душно
1014.9 1008.5
06 16.09 Ю 4 30 км 8/8 720 м
[Cu med, cong]
+26.0 +22.3 80 +34 +35 очень
душно
1017.0 1010.6 +22.2 0.3
09 16.09 Ю 3 30 км 4/3 750 м
[Cu med, cong Ac trans]
+29.0 +21.3 63 +37 +48 очень
душно
1016.4 1010.1
12 16.09 Ю 4 30 км 4/3 750 м
[Cu med, cong Ac cuf]
+29.0 +20.7 61 +36 +41 очень
душно
1014.2 1007.9
15 16.09 Ю 3 30 км 3/1 720 м
[Cu hum Ac trans Ci fib]
+26.5 +21.6 74 +34 +34 очень
душно
1014.8 1008.5
18 16.09 Ю 2 30 км 1/1 700 м
[Cu hum]
+25.4 +21.6 80 +33 +33 очень
душно
1015.6 1009.2 +29.4
21 16.09 Ю 2 30 км 1/1 660 м
[Cu hum]
+24.2 +22.4 90 +32 +32 очень
душно
1015.4 1009.0
00 17.09 ЮЗ 2 30 км 1/1 600 м
[Cu med, cong]
+23.2 +21.7 91 +31 +31 очень
душно
1014.3 1007.9
03 17.09 ЮЗ 2 30 км 3/1 540 м
[Cu med, cong Ac und]
+22.4 +21.5 95 +30 +30 очень
душно
1015.5 1009.1
06 17.09 ЮЗ 3 30 км 6/6 660 м
[Cu med, cong Ci fib]
+26.3 +21.7 76 +34 +37 очень
душно
1017.4 1011.0 +21.8
09 17.09 ЮВ 5 30 км 3/3 750 м
[Cu med, cong Ci fib]
+29.2 +19.8 57 +35 +44 очень
душно
1016.4 1010.1
12 17.09 ЮВ 4 30 км 3/3 800 м
[Cu med, cong]
+29.3 +19.2 55 +35 +41 очень
душно
1013.6 1007.3
15 17.09 Ю 3 30 км 1/1 720 м
[Cu hum Ci fib]
+26.7 +20.8 70 +33 +33 очень
душно
1013.2 1006.9
18 17.09 Ю 2 30 км 1/1 700 м
[Cu hum]
+25.0 +21.7 82 +32 +32 очень
душно
1014.3 1007.9 +29.7
21 17.09 ЮЗ 2 30 км 3/3 630 м
[Cu med, cong]
+23.4 +21.8 91 +32 +32 очень
душно
1014.3 1007.9

 

Местоположение метеостанции Момбаса (Кения): широта -4.03 долгота 39.62 высота над уровнем моря 55 м.

В архиве по умолчанию представлена погода в Момбасе за последнюю неделю. Архивные данные за месяц целиком и за предыдущие месяцы, начиная с января 2011 года, Вы можете получить, выбрав интересующий диапазон дат из раскрывающегося списка и нажав кнопку "Ввод!".


*Определитесь, кто Вы:
робот инопланетянин человек

Внимание! Время в таблицах - всемирное. Для получения местного времени необходимо прибавить поправку, которая равна 3 ч.

Смотрите также архив погоды в соседних городах и на ближайших метеорологических станциях:

Погода в Малинди (Кения) (104 км)
Погода в Вои (Кения) (136 км)
Погода в Ламу (Кения) (242 км)
Погода в Занзибаре (Танзания) (248 км)
Погода в Макинду (Кения) (278 км)
Погода в Аэропорту Килиманжаро (Танзания) (291 км)
Погода в Дар-эс-Саламе (Танзания) (319 км)
Погода в Морогоро (Танзания) (380 км)
Погода в Гариссе (Кения) (396 км)
Погода в Найроби (Кения) (425 км)

Пояснения к столбцам:

Ветер - указаны скорость ветра в м/с - средняя за 10 мин, порывы в срок и между сроками (в фигурных скобках) и направление, откуда дует ветер: С - северный, СВ - северо-восточный, В - восточный, ЮВ - юго-восточный, Ю - южный, ЮЗ - юго-западный, З - западный, СЗ - северо-западный.
Видимость - горизонтальная дальность видимости в метрах или километрах. При видимости от 1 до 10 км при отсутствии осадков обычно наблюдается дымка, при ухудшении видимости до 1 км и менее - туман. В сухую погоду видимость может ухудшаться дымом, пылью или мглою.
Явления - указаны атмосферные явления, наблюдавшиеся в срок или в последний час перед сроком; фигурными скобками обозначены явления, наблюдавшиеся между сроками (за 1-3 часа до срока); квадратными скобками обозначены град или гололедные отложения с указанием их диаметра в мм.
Облачность - указаны через наклонную черту общая и нижняя облачность в баллах и высота нижней границы облаков в метрах; квадратными скобками обозначены формы облаков: Ci - перистые, Cs - перисто-слоистые, Cc - перисто-кучевые, Ac - высококучевые, As - высокослоистые, Sc - слоисто-кучевые, Ns - слоисто-дождевые, Cu - кучевые, Cb - кучево-дождевые. Подробнее классификацию облаков см. в Атласе облаков (PDF).
T - Температура воздуха - температура, измеренная на высоте 2 м над землей.
Td - Температура точки росы - температура, при понижении до которой содержащийся в воздухе водяной пар достигнет насыщения.
f - Относительная влажность воздуха - влажноcть воздуха, измеренная на высоте 2 м над землей.
Te - Эффективная температура - температура, которую ощущает одетый по сезону человек в тени. Характеристика душности погоды. При расчете учитывается влияние влажности воздуха и скорости ветра на теплоощущения человека.
Tes - Эффективная температура на солнце - температура, которую ощущает человек, с поправкой на солнечный нагрев. Характеристика знойности погоды. Зависит от высоты солнца над горизонтом, облачности и скорости ветра. Ночью, в пасмурную погоду, а также при ветре 12 м/с и более поправка равна нулю.
P - Атмосферное давление - приведенное к уровню моря атмосферное давление.
Po - Атмосферное давление - измеренное на уровне метеостанции атмосферное давление.
Tmin - Минимальная температура - минимум температуры воздуха на высоте 2 м над землей.
Tmax - Максимальная температура - максимум температуры воздуха на высоте 2 м над землей.
R - Количество осадков - Количество выпавших осадков за период времени, мм. При наведении курсора мыши на число - период времени, за который выпало указанное количество осадков.
R24 - Количество осадков - Количество выпавших осадков за 24 часа, мм.
S - Снежный покров - Высота снежного покрова, см. При наведении курсора мыши на число - состояние снежного покрова и степень покрытия местности в баллах.